#timestamp,LO_Frequency,Hit,StdDev 
1582444815.3,286046999.1,N
1582444835.1,286046999.6,N
1582444855.9,286046998.8,N
1582444875.7,286047000.9,N
1582444895.6,286047000.2,N
1582444915.4,286047001.3,N
1582444935.2,286047002.0,N
1582444955.1,286047002.5,N
1582444956.0,286047002.5,N
1582444975.8,286047000.5,N
1582444995.6,286047001.2,N
1582445015.5,286046999.1,N
1582445035.3,286046995.4,N
1582445055.2,286046995.7,N
1582445075.9,286046991.8,Y
1582445095.7,286046997.3,P
1582445115.6,286046996.9,P
1582445135.4,286046997.3,P
1582445155.3,286046995.5,Y
1582445175.1,286046998.7,P
1582445176.0,286046998.7,N
1582445195.8,286046999.1,N
1582445215.7,286046999.1,N
1582445235.5,286047000.2,N
1582445255.3,286046999.8,N
1582445275.2,286047004.1,Y
1582445295.0,286047009.2,P
1582445295.9,286047009.2,N
1582445315.8,286047009.2,N
1582445335.6,286047010.6,N
1582445355.4,286047006.8,N
1582445375.3,286047007.5,N
1582445395.1,286047005.2,N
1582445415.9,286047006.5,N
1582445435.7,286047008.4,N
1582445455.5,286047006.5,N
1582445475.4,286047006.1,N
1582445495.2,286047008.7,Y
1582445515.1,286046999.8,P
1582445516.0,286046999.8,N
1582445535.8,286046999.9,N
1582445555.6,286047000.6,N
1582445575.5,286046999.9,N
1582445595.3,286047000.0,N
1582445615.1,286046999.8,N
1582445635.9,286047000.5,N
1582445655.7,286047002.2,N
1582445675.6,286047009.8,Y
1582445695.4,286047014.7,P
1582445715.2,286047014.5,N
1582445735.1,286047007.9,N
1582445736.0,286047007.9,N
1582445755.8,286047009.2,N
1582445775.7,286047005.2,N
1582445795.5,286047001.7,N
1582445815.3,286046999.9,N
1582445835.2,286046999.1,N
1582445855.0,286046999.5,N
1582445855.9,286046999.5,N
1582445875.7,286046999.1,N
1582445895.6,286046995.4,N
1582445915.4,286046995.0,N
1582445935.3,286046997.9,N
1582445955.1,286046995.1,N
1582445975.8,286046997.6,N
1582445995.7,286046996.1,N
1582446015.5,286046992.0,N
1582446035.4,286046991.9,N
1582446055.2,286046994.7,N
1582446075.0,286046992.4,N
1582446075.9,286046992.4,N
1582446095.8,286046994.3,N
1582446115.6,286046995.1,N
1582446135.4,286046994.1,N
1582446155.3,286046991.9,N
1582446175.1,286046994.0,N
1582446195.9,286046996.2,N
1582446215.7,286046995.4,N
1582446235.5,286046997.0,N
1582446255.4,286046995.1,N
1582446275.2,286046995.1,N
1582446295.1,286046997.9,N
1582446296.0,286046997.9,N
1582446315.8,286046995.4,N
1582446335.6,286046997.1,N
1582446355.5,286046995.4,N
1582446375.3,286046999.5,N
1582446395.2,286047000.4,N
1582446415.9,286046998.1,N
1582446435.7,286046999.3,N
1582446455.6,286047001.2,N
1582446475.4,286046999.2,N
1582446495.2,286046997.1,N
1582446515.1,286046997.1,N
1582446516.0,286046997.1,N
1582446535.8,286046996.8,N
1582446555.7,286046998.9,N
1582446575.5,286046996.3,N
1582446595.3,286046992.9,Y
1582446615.2,286046995.8,P
1582446635.0,286046995.8,P
1582446635.9,286046995.8,P
1582446655.8,286046993.6,Y
1582446675.6,286046998.4,P
1582446695.4,286047001.0,N
1582446715.3,286047000.0,N
1582446735.1,286046998.2,N
1582446755.8,286046998.3,N
1582446775.7,286046999.4,N
1582446795.5,286046996.8,N
1582446815.4,286047001.1,N
1582446835.2,286047000.6,N
1582446855.0,286047000.9,N
1582446855.9,286047000.9,N
1582446875.8,286046999.8,N
1582446895.6,286047001.9,N
1582446915.5,286047002.8,N
1582446935.3,286047001.1,N
1582446955.1,286046998.6,N
1582446975.9,286047000.5,N
1582446995.7,286046998.4,N
1582447015.5,286047002.1,N
1582447035.4,286047001.7,N
1582447055.2,286047001.5,N
1582447075.1,286047001.3,N
1582447076.0,286047001.3,N
1582447095.8,286047002.7,N
1582447115.6,286047002.0,N
1582447135.5,286047003.9,N
1582447155.3,286047004.8,N
1582447175.1,286047005.5,N
1582447195.9,286047003.2,N
1582447215.7,286047004.6,N
1582447235.6,286047003.0,N
1582447255.4,286047002.1,N
1582447275.2,286047000.0,N
1582447295.1,286046999.4,N
1582447296.0,286046999.4,N
1582447315.8,286046998.6,N
1582447335.7,286046996.1,N
1582447355.5,286046999.7,N
1582447375.3,286046998.4,N
1582447395.2,286047000.4,N
1582447415.0,286047000.3,N
1582447415.9,286047000.3,N
1582447435.7,286047000.4,N
1582447455.6,286047000.5,N
1582447475.4,286046998.5,N
1582447495.3,286046996.5,N
1582447515.1,286046996.9,N
1582447516.0,286046996.9,N
1582447535.8,286046996.5,N
1582447555.7,286046998.6,N
1582447575.5,286046999.4,N
1582447595.4,286046997.7,N
1582447615.2,286046995.5,N
1582447635.0,286046996.1,N
1582447635.9,286046996.1,N
1582447655.8,286046997.7,N
1582447675.6,286046997.4,N
1582447695.5,286046997.6,N
1582447715.3,286046998.8,N
1582447735.1,286047001.2,N
1582447755.9,286047000.6,N
1582447775.7,286047002.5,N
1582447795.5,286047004.2,N
1582447815.4,286047002.9,N
1582447835.2,286047005.6,N
1582447855.1,286047003.6,N
1582447856.0,286047003.6,N
1582447875.8,286047007.2,N
1582447895.6,286047006.4,N
1582447915.5,286047006.9,N
1582447935.3,286047007.1,N
1582447955.2,286047005.4,N
1582447975.9,286047006.0,N
1582447995.7,286047005.1,N
1582448015.6,286047007.2,N
1582448035.4,286047007.1,N
1582448055.3,286047007.0,N
1582448075.1,286047004.6,N
1582448076.0,286047004.6,N
1582448095.8,286047003.8,N
1582448115.7,286047004.4,N
1582448135.5,286047003.4,N
1582448155.3,286047003.1,N
1582448175.2,286047004.2,N
1582448195.0,286047003.5,N
1582448195.9,286047003.5,N
1582448215.8,286047004.2,N
1582448235.6,286047001.9,N
1582448255.4,286047001.8,N
1582448275.3,286047003.1,N
1582448295.1,286047001.3,N
1582448315.9,286047000.2,N
1582448335.7,286046998.3,N
1582448355.5,286046999.1,N
1582448375.4,286047000.0,N
1582448395.2,286047000.5,N
